Tracking 28911 objects as of 22-May-2024
HD Live streaming from Space Station
objects crossing your sky now

FREGAT DEB

Track FREGAT DEB now!
10-day predictions


NORAD ID: 45964
Int'l Code: 2011-037FV
Perigee: 420.0 km
Apogee: 1,893.5 km
Inclination: 51.4 °
Period: 108.3 minutes
Semi major axis: 7527 km
RCS: Unknown
Launch date: July 18, 2011
Source: Commonwealth of Independent States (former USSR) (CIS)
Launch site: TYURATAM MISSILE AND SPACE COMPLEX (TTMTR)

Note: This is SATELLITE DEBRIS
Your satellite tracking list
Your tracking list is empty




NASA's NSSDC Master Catalog

Two Line Element Set (TLE):
1 45964U 11037FV  24142.73890736  .00262261  00000-0  29532-1 0  9997
2 45964  51.3684 311.6670 0978708 214.9622 138.3081 13.29235136165096
Source of the keplerian elements: AFSPC